Wind_Speed
8 8 8 8 9 9 9 10 11 12 12 12 13 14 14 15 16 16 16 17 17 18 18 19 19 20 21 21 21 22 22 22 23 23 24 24 24 24
10 10 10 10 11 11 11 12 13 14 14 15 16 16 17 17 18 19 19 19 20 20 21 21 22 22 23 23 23 24 24 25 25 25 26 26 27 27
12 12 12 13 13 13 13 14 15 16 17 17 18 19 19 20 20 21 21 22 22 23 23 24 24 24 25 25 25 25 26 26 27 27 28 28 29 29
14 14 14 15 15 15 16 16 17 18 19 20 21 22 22 23 23 24 24 25 25 25 26 26 26 27 27 27 28 28 29 29 30 30 30 30 31 31
16 16 17 17 17 18 18 19 20 21 22 23 24 24 25 25 26 26 27 27 28 28 29 29 29 30 30 31 31 32 32 32 32 33 33 33 33 34
18 19 19 20 20 21 22 22 23 24 25 25 26 27 28 29 29 29 30 30 31 32 32 33 33 33 33 34 34 35 35 35 35 36 36 36 36 37
21 21 22 22 23 24 24 25 26 27 28 28 29 30 31 31 32 33 33 34 34 35 35 36 36 36 37 37 37 38 38 38 38 38 38 39 39 39
24 24 24 25 26 27 27 28 29 29 30 31 32 33 33 34 35 36 36 36 37 38 38 38 40 40 40 41 40 40 40 41 41 41 41 42 42 42
27 27 28 28 29 30 31 31 32 32 33 34 35 35 36 37 38 39 39 39 40 41 42 42 42 43 43 44 44 44 44 44 44 44 44 45 45 45
30 30 31 31 31 33 34 34 35 36 37 37 38 38 39 40 41 42 42 43 43 44 44 44 45 45 46 46 46 46 47 47 47 47 48 48 48 48
32 32 33 34 35 36 36 37 38 39 39 40 40 41 42 43 44 44 45 46 46 46 47 47 48 48 48 48 49 49 49 49 50 50 51 51 51 51
33 35 35 36 37 37 38 39 40 41 42 43 43 44 45 46 47 47 48 49 50 50 50 50 50 50 50 50 52 52 52 53 53 53 53 53 54 54
35 36 37 37 38 39 40 41 42 43 44 45 46 47 47 48 49 50 51 52 52 52 53 53 53 53 53 53 53 54 55 55 55 56 56 55 55 55
36 38 37 37 39 40 41 42 43 44 46 47 48 49 50 50 51 51 52 53 53 54 54 55 56 56 56 56 56 56 57 58 59 58 57 56 55 54
37 38 39 40 41 42 44 44 45 46 47 49 50 51 51 52 52 53 54 54 55 55 56 56 57 57 57 58 57 57 58 58 58 57 56 55 54 53
40 40 40 41 42 43 44 45 46 48 49 51 51 51 52 53 54 54 54 55 56 56 57 57 57 58 58 58 58 57 57 56 55 55 54 53 51 50
40 41 41 43 45 46 47 48 49 50 51 51 51 52 54 54 55 55 55 56 56 56 57 57 57 57 57 58 58 56 55 54 53 53 51 51 50 49
42 42 44 46 47 48 49 50 50 51 52 52 52 53 54 54 55 55 55 56 56 56 56 56 57 57 56 55 55 54 52 51 50 49 49 49 48 48
44 44 46 47 48 48 49 49 50 51 51 52 53 53 54 54 54 54 55 55 55 55 55 56 56 55 54 52 50 50 49 48 47 46 46 45 45 44
45 46 46 47 48 48 49 49 50 51 51 52 52 52 52 52 53 53 53 53 54 55 55 54 54 53 52 50 48 46 46 45 44 43 43 44 43 43
45 46 47 48 48 48 49 50 50 50 51 51 50 50 50 51 51 51 52 52 53 52 52 50 50 49 48 45 42 40 40 40 40 39 39 40 40 39
46 47 48 49 49 48 49 49 50 50 49 49 49 49 50 50 50 50 50 50 49 48 47 46 45 43 42 40 39 37 36 36 37 37 37 37 36 35
46 47 48 48 48 48 48 48 49 49 49 49 49 48 48 47 47 47 47 46 45 44 42 41 40 39 38 37 36 34 33 33 34 34 34 33 32 31
Wind_Direction
243 251 258 266 272 278 282 286 289 292 295 298 300 302 303 303 303 302 300 299 297 296 296 295 294 293 292 292 291 291 289 288 287 286 285 283 282 281
251 258 263 268 272 277 281 284 287 290 291 293 295 297 299 300 300 299 298 297 296 296 295 294 293 291 291 291 290 290 289 288 287 286 285 285 283 282
257 261 265 269 274 279 281 283 285 287 288 290 292 293 294 295 296 296 296 295 295 294 294 293 292 291 291 290 290 289 289 288 287 286 286 285 284 282
259 263 267 271 275 280 282 283 284 286 287 289 290 291 292 293 294 294 294 294 293 292 292 292 291 291 290 290 289 289 289 288 287 286 285 285 284 282
263 266 269 273 276 279 282 283 285 286 287 288 289 290 291 291 292 292 292 292 292 291 291 290 289 289 289 289 289 288 288 287 286 285 284 284 283 283
266 269 271 274 277 279 282 284 286 286 287 288 289 289 290 290 290 291 292 291 291 290 290 289 289 289 288 288 288 287 286 286 285 284 283 283 282 282
267 270 273 275 277 279 281 283 284 285 286 287 288 289 289 289 290 290 291 291 290 290 290 290 290 289 288 288 288 287 286 286 285 285 284 283 283 282
269 271 274 276 278 280 281 282 283 284 285 286 287 288 288 288 290 290 291 290 290 290 290 290 290 290 289 289 288 287 286 285 284 284 284 284 283 282
270 273 275 277 278 280 281 282 284 286 287 288 288 289 289 289 289 289 289 289 290 290 290 290 289 289 289 289 288 287 286 285 284 283 283 283 282 282
272 274 276 278 279 281 282 283 285 286 287 288 288 288 288 289 289 289 288 289 289 290 290 290 289 289 289 289 288 287 286 285 285 284 283 282 282 282
273 275 277 279 280 281 282 283 284 285 286 288 288 289 289 290 290 290 290 290 290 290 290 289 289 289 288 288 287 287 286 285 284 284 284 283 282 281
274 275 277 279 280 281 283 283 284 285 286 287 288 288 288 289 289 289 290 290 290 290 289 289 289 288 288 287 287 287 287 286 285 285 285 284 283 282
276 277 278 279 280 282 285 285 284 285 286 288 289 289 289 290 290 289 289 290 291 291 290 289 289 289 288 288 288 287 287 287 287 287 286 285 284 283
278 278 278 279 281 284 286 286 286 286 287 288 289 289 289 290 290 290 290 291 291 292 291 291 291 290 289 289 288 287 287 286 287 287 286 285 283 282
278 279 279 280 282 285 286 287 288 287 288 289 289 290 290 290 291 291 291 292 292 292 292 292 292 291 290 290 289 288 288 287 287 286 285 284 284 282
279 280 281 282 283 285 287 289 289 289 291 291 290 290 290 290 291 292 292 292 292 292 292 292 291 291 291 290 289 289 288 287 286 285 285 285 285 284
280 281 281 283 285 286 288 289 290 290 291 291 290 289 290 291 292 293 293 293 293 292 292 291 292 292 291 291 290 289 288 287 286 285 284 284 284 284
281 283 284 285 287 288 289 290 290 291 291 291 291 291 291 292 293 293 293 293 293 293 293 293 294 294 293 292 291 289 288 287 286 285 285 284 283 282
283 284 285 287 289 289 290 291 292 292 292 293 293 294 294 293 293 293 294 294 294 294 295 294 294 294 293 292 291 290 289 288 286 286 286 285 284 282
285 286 286 288 289 289 290 291 292 293 294 295 295 295 295 294 294 294 295 295 296 296 296 296 295 294 294 293 292 291 290 290 289 287 286 285 284 283
286 287 288 289 290 290 291 292 292 293 294 295 295 296 296 295 295 295 296 296 297 298 298 297 295 294 294 293 292 291 290 290 289 288 287 286 285 284
287 287 289 290 291 291 292 292 292 293 294 295 295 296 296 296 295 295 296 297 298 299 299 298 296 296 294 294 294 293 291 290 290 290 291 290 288 286
289 290 291 292 292 293 293 292 293 295 295 295 295 295 296 296 296 296 297 298 299 299 298 297 296 296 295 294 294 294 292 291 291 291 292 292 291 290
Height
5883 5884 5884 5884 5884 5884 5884 5884 5883 5883 5882 5881 5880 5879 5878 5876 5875 5874 5873 5871 5870 5869 5867 5866 5865 5864 5862 5861 5860 5859 5857 5856 5855 5854 5853 5852 5851 5850
5881 5881 5882 5882 5882 5882 5881 5881 5880 5880 5879 5878 5877 5876 5874 5873 5872 5870 5869 5868 5866 5865 5863 5862 5860 5859 5857 5856 5855 5853 5852 5850 5849 5848 5846 5845 5844 5843
5878 5879 5879 5879 5879 5878 5878 5877 5877 5876 5875 5874 5873 5872 5870 5869 5867 5866 5864 5863 5861 5860 5858 5856 5855 5853 5851 5850 5848 5847 5845 5844 5843 5841 5840 5838 5837 5836
5875 5875 5875 5875 5875 5875 5874 5873 5872 5871 5871 5869 5868 5867 5865 5864 5862 5860 5859 5857 5855 5854 5852 5850 5848 5847 5845 5843 5841 5840 5838 5837 5835 5834 5832 5831 5829 5828
5871 5871 5871 5871 5871 5870 5870 5869 5868 5867 5865 5864 5863 5861 5859 5858 5856 5854 5852 5850 5848 5847 5845 5843 5841 5839 5838 5836 5834 5832 5830 5829 5827 5825 5823 5822 5820 5819
5867 5867 5867 5867 5866 5866 5865 5864 5862 5861 5860 5858 5856 5855 5853 5851 5849 5847 5845 5843 5841 5839 5837 5835 5833 5831 5829 5827 5825 5823 5821 5819 5817 5816 5814 5812 5811 5809
5862 5862 5862 5861 5861 5860 5859 5858 5856 5855 5853 5851 5849 5847 5845 5843 5841 5839 5837 5835 5832 5830 5828 5826 5824 5822 5820 5817 5815 5813 5811 5809 5807 5805 5803 5801 5800 5798
5856 5856 5856 5855 5854 5853 5852 5851 5849 5848 5846 5844 5842 5840 5837 5835 5833 5830 5828 5826 5824 5821 5818 5816 5813 5811 5808 5806 5804 5802 5800 5797 5795 5793 5791 5789 5788 5786
5850 5849 5849 5848 5847 5846 5845 5843 5842 5840 5838 5836 5834 5832 5829 5826 5824 5821 5818 5816 5813 5810 5808 5806 5803 5800 5797 5794 5792 5790 5787 5785 5783 5780 5778 5776 5774 5772
5843 5842 5841 5840 5839 5838 5837 5835 5834 5832 5829 5827 5825 5822 5819 5816 5814 5811 5807 5805 5802 5799 5796 5793 5791 5787 5785 5781 5779 5776 5774 5771 5769 5766 5764 5762 5760 5758
5835 5834 5833 5832 5831 5829 5827 5826 5824 5822 5819 5817 5814 5812 5809 5805 5802 5799 5796 5793 5790 5787 5783 5780 5777 5774 5771 5768 5765 5762 5759 5757 5754 5751 5749 5747 5744 5742
5826 5825 5824 5823 5821 5819 5818 5816 5813 5811 5808 5806 5803 5800 5797 5793 5790 5787 5783 5780 5777 5774 5770 5766 5763 5759 5757 5754 5750 5747 5744 5741 5738 5735 5733 5730 5727 5724
5816 5815 5814 5813 5811 5809 5807 5805 5802 5799 5797 5794 5791 5787 5784 5780 5777 5773 5770 5766 5762 5759 5755 5751 5748 5744 5741 5739 5735 5731 5727 5724 5721 5718 5715 5712 5709 5706
5807 5805 5804 5802 5800 5798 5796 5793 5790 5787 5785 5781 5778 5775 5771 5767 5763 5759 5755 5751 5747 5744 5740 5735 5731 5728 5724 5721 5719 5715 5710 5706 5703 5699 5696 5693 5690 5687
5796 5794 5793 5791 5789 5787 5784 5781 5778 5775 5772 5768 5765 5761 5757 5753 5749 5744 5740 5736 5732 5728 5724 5719 5715 5711 5706 5703 5700 5697 5693 5689 5684 5681 5678 5675 5672 5669
5785 5783 5781 5779 5777 5775 5772 5769 5765 5762 5758 5755 5751 5747 5742 5738 5734 5730 5725 5721 5717 5713 5707 5703 5698 5693 5689 5685 5681 5677 5674 5670 5667 5663 5660 5657 5654 5652
5773 5771 5770 5768 5765 5762 5759 5756 5752 5749 5745 5741 5736 5732 5728 5724 5719 5714 5710 5705 5700 5696 5691 5686 5681 5676 5671 5666 5662 5658 5655 5652 5649 5646 5643 5641 5638 5635
5762 5760 5758 5755 5752 5749 5746 5742 5738 5734 5730 5726 5722 5717 5713 5708 5704 5699 5694 5689 5684 5679 5674 5669 5663 5659 5654 5650 5645 5640 5637 5634 5632 5629 5626 5623 5622 5619
5751 5748 5745 5742 5739 5735 5731 5728 5724 5720 5715 5711 5707 5702 5697 5693 5688 5683 5678 5673 5668 5662 5657 5651 5646 5641 5636 5633 5629 5624 5620 5618 5615 5613 5610 5607 5605 5603
5738 5735 5732 5729 5725 5721 5718 5714 5710 5705 5701 5696 5691 5687 5682 5677 5672 5667 5662 5657 5652 5646 5641 5635 5630 5624 5620 5617 5614 5610 5605 5602 5600 5598 5595 5593 5590 5588
5725 5721 5718 5715 5711 5707 5703 5699 5695 5691 5686 5681 5677 5672 5667 5662 5657 5652 5647 5642 5636 5631 5625 5620 5614 5609 5605 5601 5599 5597 5593 5589 5586 5584 5582 5579 5577 5575
5711 5708 5704 5701 5697 5693 5689 5685 5680 5676 5671 5667 5662 5658 5653 5648 5643 5638 5633 5627 5622 5617 5611 5606 5601 5596 5592 5589 5587 5584 5582 5578 5575 5572 5570 5567 5563 5562
5698 5694 5690 5687 5683 5679 5675 5670 5666 5662 5657 5653 5648 5644 5639 5634 5629 5624 5619 5614 5609 5604 5599 5594 5589 5585 5581 5578 5576 5573 5571 5568 5565 5563 5560 5557 5554 5551